sat.trackr.live / text

‹ back to catalog

STARLINK-11303 [DTC]

NORAD 62096 · 2024-220J

PAYLOAD ACTIVE UNKNOWN

§ Identity

Operator
Country
US
Launch date
2024-11-25
Launch site
AFETR
Launch vehicle
Mass (kg)
RCS (m²)

Purposes: comms

External: N2YO · Heavens-Above · Gunter

§ Orbital elements

Epoch: 2026-05-24T20:23:34.442880Z

Period
91.66 min
Inclination
42.9989°
Eccentricity
0.0001861
Mean motion
15.70966148 rev/d
Perigee alt
354.9 km
Apogee alt
357.4 km
Semi-major
6,734.3 km
B*
1.6515e-3
RAAN
303.7840°
Arg perigee
270.0497°
Mean anomaly
90.0157°
Rev number
8,703

§ Raw data

STARLINK-11303 [DTC]1 62096U 24220J   26144.84970420  .00218279  00000+0  16515-2 0  99922 62096  42.9989 303.7840 0001861 270.0497  90.0157 15.70966148 87033

JSON: /api/v1/satellites/62096 · /tle

For live sub-satellite position, see the globe view (requires WebGL).

§ Visibility from observer

Set your observer location to see the next 7 days of passes ≥ 10°. The values pass through the URL so the page stays shareable.

No JS? Fill the form by hand. The geolocation button needs JavaScript.